Location: Helsinki
(60.1699°N, 24.9384°E)
Time: 23:49:45
(UTC+02:00)

A-11 Canister half - Pass Details

Date: 29 October 2020
Orbit: 1516 x 1684 km, 47.2° (Epoch: 26 November)

Event Time Altitude Azimuth Distance (km) Brightness Sun altitude
Rises 22:17:41 0° 242° (WSW) 4,924 11.7 -39.7°
Reaches altitude 10° 22:21:09 10° 235° (SW) 3,925 11.1 -40.0°
Enters shadow 22:22:09 13° 232° (SW) 3,651 10.9 -40.0°
Maximum altitude 22:30:03 38° 172° (S) 2,325 - -40.6°
Drops below altitude 10° 22:38:43 10° 109° (ESE) 3,821 - -41.1°
Sets 22:42:02 0° 102° (ESE) 4,782 - -41.3°
